Location: Hobi?a Gr?di?te
(45.4833°N, 22.7833°E)
Time: 11:40:15
(UTC+00:00)

ATLAS 2AS CENTAUR R/B - Pass Details

Date: 28 January 2023
Orbit: 986 x 1226 km, 63.7° (Epoch: 31 January)

Event Time Altitude Azimuth Distance (km) Brightness Sun altitude
Rises 17:21:59 0° 322° (NW) 3,991 6.1 -19.8°
Reaches altitude 10° 17:24:50 10° 327° (NNW) 2,993 5.4 -20.3°
Maximum altitude 17:31:47 55° 45° (NE) 1,263 2.8 -21.5°
Enters shadow 17:34:03 39° 99° (E) 1,529 3.0 -21.9°
